Radiation Dose at Monitoring Post of Fukushima Daini Nuclear Power Station
Date,Time,MP-1(microSv/h),MP-2(microSv/h),MP-3(microSv/h),MP-4(microSv/h),MP-5(microSv/h),MP-6(microSv/h),MP-7(microSv/h),Wind Direction,Wind Velocity(m/s),Rain
2012/12/27,00:00,1.1,0.7,1.1,1.0,1.0,0.5,0.4,northwest,2.8,No
2012/12/27,00:10,1.1,0.7,1.1,1.0,1.0,0.5,0.4,west-northwest,2.2,No
2012/12/27,00:20,1.1,0.7,1.1,1.0,1.0,0.5,0.4,west,2.8,No
2012/12/27,00:30,1.1,0.7,1.1,1.0,1.0,0.5,0.4,west-northwest,1.4,No
2012/12/27,00:40,1.1,0.7,1.1,1.0,1.0,0.5,0.4,northwest,2.7,No
2012/12/27,00:50,1.1,0.7,1.1,1.0,1.0,0.5,0.4,north-northwest,2.1,No
2012/12/27,01:00,1.1,0.7,1.1,1.0,1.0,0.5,0.4,north,2.2,No
2012/12/27,01:10,1.1,0.7,1.1,1.0,1.0,0.5,0.4,northwest,0.9,No
2012/12/27,01:20,1.1,0.7,1.1,1.0,1.0,0.5,0.4,northwest,1.6,No
2012/12/27,01:30,1.1,0.7,1.1,1.0,1.0,0.5,0.4,northwest,1.8,No
2012/12/27,01:40,1.1,0.7,1.1,1.0,1.0,0.5,0.4,north-northwest,1.7,No
2012/12/27,01:50,1.1,0.7,1.1,1.0,1.0,0.5,0.4,northwest,2.0,No
2012/12/27,02:00,1.1,0.7,1.1,1.0,1.0,0.5,0.4,northwest,2.2,No
2012/12/27,02:10,1.1,0.7,1.1,1.0,1.0,0.5,0.4,northwest,1.9,No
2012/12/27,02:20,1.1,0.7,1.1,1.0,1.0,0.5,0.4,north-northwest,1.8,No
2012/12/27,02:30,1.1,0.7,1.1,1.0,1.0,0.5,0.4,north-northwest,2.8,No
2012/12/27,02:40,1.1,0.7,1.1,1.0,1.0,0.5,0.4,northwest,2.5,No
2012/12/27,02:50,1.1,0.7,1.1,1.0,1.0,0.5,0.4,northwest,2.4,No
2012/12/27,03:00,1.1,0.7,1.1,1.0,1.0,0.5,0.4,west-northwest,3.9,No
2012/12/27,03:10,1.1,0.7,1.1,1.0,1.0,0.5,0.4,west-northwest,3.6,No
2012/12/27,03:20,1.1,0.7,1.1,1.0,1.0,0.5,0.4,west-northwest,4.3,No
2012/12/27,03:30,1.1,0.7,1.1,1.0,1.0,0.5,0.4,west-northwest,5.6,No
2012/12/27,03:40,1.1,0.7,1.1,1.0,1.0,0.5,0.4,northwest,5.5,No
2012/12/27,03:50,1.1,0.7,1.1,1.0,1.0,0.5,0.4,northwest,5.0,No
2012/12/27,04:00,1.1,0.7,1.1,1.0,1.0,0.5,0.4,northwest,4.0,No
2012/12/27,04:10,1.1,0.7,1.1,1.0,1.0,0.5,0.4,west-northwest,3.4,No
2012/12/27,04:20,1.1,0.7,1.1,1.0,1.0,0.5,0.4,west-northwest,2.0,No
2012/12/27,04:30,1.1,0.7,1.1,1.0,1.0,0.5,0.4,northwest,3.3,No
2012/12/27,04:40,1.1,0.7,1.1,1.0,1.0,0.5,0.4,northwest,2.9,No
2012/12/27,04:50,1.1,0.7,1.1,1.0,1.0,0.5,0.4,northwest,1.7,No
2012/12/27,05:00,1.1,0.7,1.1,1.0,1.0,0.5,0.4,northwest,2.8,No
2012/12/27,05:10,1.1,0.7,1.1,1.0,1.0,0.5,0.4,north-northwest,3.4,No
2012/12/27,05:20,1.1,0.7,1.1,1.0,1.0,0.5,0.4,west-northwest,2.5,No
2012/12/27,05:30,1.1,0.7,1.1,1.0,1.0,0.5,0.4,west,3.3,No
2012/12/27,05:40,1.1,0.7,1.1,1.0,1.0,0.5,0.4,west-northwest,3.5,No
2012/12/27,05:50,1.1,0.7,1.1,1.0,1.0,0.5,0.4,northwest,3.4,No
2012/12/27,06:00,1.1,0.7,1.1,1.0,1.0,0.5,0.4,northwest,2.2,No
2012/12/27,06:10,1.1,0.7,1.1,1.0,1.0,0.5,0.4,northwest,1.7,No
2012/12/27,06:20,1.1,0.7,1.1,1.0,1.0,0.5,0.4,northwest,1.7,No
2012/12/27,06:30,1.1,0.7,1.1,1.0,1.0,0.5,0.4,north,1.7,No
2012/12/27,06:40,1.1,0.7,1.1,1.0,1.0,0.5,0.4,north,4.1,No
2012/12/27,06:50,1.1,0.7,1.1,1.0,1.0,0.5,0.4,north,2.2,No
2012/12/27,07:00,1.1,0.7,1.1,1.0,1.0,0.5,0.4,north-northwest,2.8,No
2012/12/27,07:10,1.1,0.7,1.1,1.0,1.0,0.5,0.4,north,3.3,No
2012/12/27,07:20,1.1,0.7,1.1,1.0,1.0,0.5,0.4,north,3.4,No
2012/12/27,07:30,1.1,0.7,1.1,1.0,1.0,0.5,0.4,north,3.0,No
2012/12/27,07:40,1.1,0.7,1.1,1.0,1.0,0.5,0.4,north,4.2,No
2012/12/27,07:50,1.1,0.7,1.1,1.0,1.0,0.5,0.4,north,2.5,No
2012/12/27,08:00,1.1,0.7,1.1,1.0,1.0,0.5,0.4,north,3.1,No
2012/12/27,08:10,1.1,0.7,1.1,1.0,1.0,0.5,0.4,north,3.0,No
2012/12/27,08:20,1.1,0.7,1.1,1.0,1.0,0.5,0.4,north,2.2,No
2012/12/27,08:30,1.1,0.7,1.1,1.0,1.0,0.5,0.4,north,2.1,No
2012/12/27,08:40,1.1,0.7,1.1,1.0,1.0,0.5,0.4,north,2.2,No
2012/12/27,08:50,1.1,0.7,1.1,1.0,1.0,0.5,0.4,north,1.6,No
2012/12/27,09:00,1.1,0.7,1.1,1.0,1.0,0.5,0.4,north,0.8,No
2012/12/27,09:10,1.1,0.7,1.1,1.0,1.0,0.5,0.4,-,CALM,No
2012/12/27,09:20,1.1,0.7,1.1,1.0,1.0,0.5,0.4,north-northeast,1.3,No
2012/12/27,09:30,1.1,0.7,1.1,1.0,1.0,0.5,0.4,-,CALM,No
2012/12/27,09:40,1.1,0.7,1.1,1.0,1.0,0.5,0.4,-,CALM,No
2012/12/27,09:50,1.1,0.7,1.1,1.0,1.0,0.5,0.4,north-northeast,1.6,No
2012/12/27,10:00,1.1,0.7,1.1,1.0,1.0,0.5,0.4,-,CALM,No
2012/12/27,10:10,1.1,0.7,1.1,1.0,1.0,0.5,0.4,west,1.8,No
2012/12/27,10:20,1.1,0.7,1.1,1.0,1.0,0.5,0.4,north-northwest,3.3,No
2012/12/27,10:30,1.1,0.7,1.1,1.0,1.0,0.5,0.4,west-northwest,3.3,No
2012/12/27,10:40,1.1,0.7,1.1,1.0,1.0,0.5,0.4,west,4.7,No
2012/12/27,10:50,1.1,0.7,1.1,1.0,1.0,0.5,0.4,west,4.0,No
2012/12/27,11:00,1.1,0.7,1.1,1.0,1.0,0.5,0.4,west-northwest,3.3,No
2012/12/27,11:10,1.1,0.7,1.1,1.0,1.0,0.5,0.4,west-southwest,4.0,No
2012/12/27,11:20,1.1,0.7,1.1,1.0,1.0,0.5,0.4,west-northwest,5.6,No
2012/12/27,11:30,1.1,0.7,1.1,1.0,1.0,0.5,0.4,west,6.2,No
2012/12/27,11:40,1.1,0.7,1.1,1.0,1.0,0.5,0.4,west,7.0,No
2012/12/27,11:50,1.1,0.7,1.1,1.0,1.0,0.5,0.4,west,5.2,No
2012/12/27,12:00,1.1,0.7,1.1,1.0,1.0,0.5,0.4,west,6.3,No
2012/12/27,12:10,1.1,0.7,1.1,1.0,1.0,0.5,0.4,west,6.1,No
2012/12/27,12:20,1.1,0.7,1.1,1.0,1.0,0.5,0.4,west-northwest,6.3,No
2012/12/27,12:30,1.1,0.7,1.1,1.0,1.0,0.5,0.4,west-northwest,6.4,No
2012/12/27,12:40,1.1,0.7,1.1,1.0,1.0,0.5,0.4,west-southwest,4.0,No
2012/12/27,12:50,1.1,0.7,1.1,1.0,1.0,0.5,0.4,west,5.7,No
2012/12/27,13:00,1.1,0.7,1.1,1.0,1.0,0.5,0.4,west,4.7,No
2012/12/27,13:10,1.1,0.7,1.1,1.0,1.0,0.5,0.4,west-northwest,4.3,No
2012/12/27,13:20,1.1,0.7,1.1,1.0,1.0,0.5,0.4,west-northwest,6.3,No
2012/12/27,13:30,1.1,0.7,1.1,1.0,1.0,0.5,0.4,northwest,4.7,No
2012/12/27,13:40,1.1,0.7,1.1,1.0,1.0,0.5,0.4,northwest,5.0,No
2012/12/27,13:50,1.1,0.7,1.1,1.0,1.0,0.5,0.4,west-northwest,4.2,No
2012/12/27,14:00,1.1,0.7,1.1,1.0,1.0,0.5,0.4,west-northwest,3.3,No
2012/12/27,14:10,1.1,0.7,1.1,1.0,1.0,0.5,0.4,west,5.2,No
2012/12/27,14:20,1.1,0.7,1.1,1.0,1.0,0.5,0.4,west,3.8,No
2012/12/27,14:30,1.1,0.7,1.1,1.0,1.0,0.5,0.4,west,4.2,No
2012/12/27,14:40,1.1,0.7,1.1,1.0,1.0,0.5,0.4,west-southwest,3.7,No
2012/12/27,14:50,1.1,0.7,1.1,1.0,1.0,0.5,0.4,west-southwest,2.5,No
2012/12/27,15:00,1.1,0.7,1.1,1.0,1.0,0.5,0.4,west,2.8,No
2012/12/27,15:10,1.1,0.7,1.1,1.0,1.0,0.5,0.4,west,4.3,No
2012/12/27,15:20,1.1,0.7,1.1,1.0,1.0,0.5,0.4,west,1.7,No
2012/12/27,15:30,1.1,0.7,1.1,1.0,1.0,0.5,0.4,west-northwest,1.6,No
2012/12/27,15:40,1.1,0.7,1.1,1.0,1.0,0.5,0.4,northwest,2.5,No
2012/12/27,15:50,1.1,0.7,1.1,1.0,1.0,0.5,0.4,northwest,2.2,No
2012/12/27,16:00,1.1,0.7,1.1,1.0,1.0,0.5,0.4,northwest,1.0,No
2012/12/27,16:10,1.1,0.7,1.1,1.0,1.0,0.5,0.4,west-southwest,0.6,No
2012/12/27,16:20,1.1,0.7,1.1,1.0,1.0,0.5,0.4,west,0.8,No
2012/12/27,16:30,1.1,0.7,1.1,1.0,1.0,0.5,0.4,north-northwest,0.6,No
2012/12/27,16:40,1.1,0.7,1.1,1.0,1.0,0.5,0.4,west-southwest,1.4,No
2012/12/27,16:50,1.1,0.7,1.1,1.0,1.0,0.5,0.4,west-southwest,1.1,No
2012/12/27,17:00,1.1,0.7,1.1,1.0,1.0,0.5,0.4,northwest,1.1,No
2012/12/27,17:10,1.1,0.7,1.1,1.0,1.0,0.5,0.4,west-southwest,2.6,No
2012/12/27,17:20,1.1,0.7,1.1,1.0,1.0,0.5,0.4,west-southwest,3.9,No
2012/12/27,17:30,1.1,0.7,1.1,1.0,1.0,0.5,0.4,southwest,3.9,No
2012/12/27,17:40,1.1,0.8,1.1,1.0,1.0,0.5,0.4,south-southeast,1.8,No
2012/12/27,17:50,1.1,0.7,1.1,1.0,1.0,0.5,0.4,south,1.2,No
2012/12/27,18:00,1.1,0.7,1.1,1.0,1.0,0.5,0.4,east-southeast,1.8,No
2012/12/27,18:10,1.1,0.7,1.1,1.0,1.0,0.5,0.4,east-southeast,2.1,No
2012/12/27,18:20,1.1,0.7,1.1,1.0,1.0,0.5,0.4,south,2.7,No
2012/12/27,18:30,1.1,0.7,1.1,1.0,1.0,0.5,0.4,south,3.1,No
2012/12/27,18:40,1.1,0.7,1.1,1.0,1.0,0.5,0.4,south-southeast,1.9,No
2012/12/27,18:50,1.1,0.7,1.1,1.0,1.0,0.5,0.4,south,4.5,No
2012/12/27,19:00,1.1,0.7,1.1,1.0,1.0,0.5,0.4,south,5.9,No
2012/12/27,19:10,1.1,0.7,1.1,1.0,1.0,0.5,0.4,south-southwest,6.1,No
2012/12/27,19:20,1.1,0.7,1.1,1.0,1.0,0.5,0.4,south,6.1,No
2012/12/27,19:30,1.1,0.7,1.1,1.0,1.0,0.5,0.4,south,7.0,No
2012/12/27,19:40,1.1,0.7,1.1,1.0,1.0,0.5,0.4,south,5.1,No
2012/12/27,19:50,1.1,0.7,1.1,1.0,1.0,0.5,0.4,south,5.9,No
2012/12/27,20:00,1.1,0.7,1.1,1.0,1.0,0.5,0.4,south,5.3,No
2012/12/27,20:10,1.1,0.7,1.1,1.0,1.0,0.5,0.4,south,5.5,No
2012/12/27,20:20,1.1,0.7,1.1,1.0,1.0,0.5,0.4,south,5.1,No
2012/12/27,20:30,1.1,0.7,1.1,1.0,1.0,0.5,0.4,south-southwest,6.5,No
2012/12/27,20:40,1.1,0.7,1.1,1.0,1.0,0.5,0.4,south-southwest,7.0,No
2012/12/27,20:50,1.1,0.7,1.1,1.0,1.0,0.5,0.4,south,7.3,No
2012/12/27,21:00,1.1,0.7,1.1,1.0,1.0,0.5,0.4,south,7.1,No
2012/12/27,21:10,1.1,0.7,1.1,1.0,1.0,0.5,0.4,south,6.0,No
2012/12/27,21:20,1.1,0.7,1.1,1.0,1.0,0.5,0.4,south,6.8,No
2012/12/27,21:30,1.1,0.7,1.1,1.0,1.0,0.5,0.4,south,8.3,No
2012/12/27,21:40,1.1,0.7,1.1,1.0,1.0,0.5,0.4,south,7.3,No
2012/12/27,21:50,1.1,0.7,1.1,1.0,1.0,0.5,0.4,south,6.4,No
2012/12/27,22:00,1.1,0.7,1.1,1.0,1.0,0.5,0.4,south,5.0,No
2012/12/27,22:10,1.1,0.7,1.1,1.0,1.0,0.5,0.4,south,4.0,No
2012/12/27,22:20,1.1,0.7,1.1,1.0,1.0,0.5,0.4,south-southwest,4.1,No
2012/12/27,22:30,1.1,0.7,1.1,1.0,1.0,0.5,0.4,south,4.8,No
2012/12/27,22:40,1.1,0.7,1.1,1.0,1.0,0.5,0.4,south,4.8,No
2012/12/27,22:50,1.1,0.7,1.1,1.0,1.0,0.5,0.4,south,5.1,No
2012/12/27,23:00,1.1,0.7,1.1,1.0,1.0,0.5,0.4,south,5.6,No
2012/12/27,23:10,1.1,0.7,1.1,1.0,1.0,0.5,0.4,south,6.0,No
2012/12/27,23:20,1.1,0.7,1.1,1.0,1.0,0.5,0.4,south,6.2,No
2012/12/27,23:30,1.1,0.8,1.1,1.0,1.0,0.5,0.4,south,5.6,No
2012/12/27,23:40,1.1,0.7,1.1,1.0,1.0,0.5,0.4,south-southwest,5.5,No
2012/12/27,23:50,1.1,0.7,1.1,1.0,1.0,0.5,0.4,south-southwest,6.2,No
